Temp
-4 -3 -3 -3 -2 -1 -1 -0 -0 -1 -1 -0 1 1 2 2 3 4 4 5 5 5 5 5 6 6 6 6 6 6 6 6 6 5 4 5 6 6 6 6 5 6 6 6 5
-4 -3 -3 -4 -1 -1 -2 -1 -1 -1 -1 -1 0 1 2 2 2 3 4 5 5 5 5 6 6 5 6 6 5 5 5 4 5 5 5 5 6 5 6 6 7 6 6 6 5
-3 -4 -4 -4 -3 -1 -2 -1 -1 -1 -2 -1 -0 0 1 1 2 3 3 4 5 5 5 5 5 5 5 5 5 6 4 5 5 5 5 5 5 5 6 7 6 6 6 6 6
-4 -4 -2 -3 -3 -2 -2 -2 -2 -1 -1 -1 -1 -0 1 2 2 2 3 3 4 5 5 5 5 5 5 5 5 5 5 5 5 6 5 5 5 5 5 6 6 5 5 5 5
-4 -4 -3 -2 -2 0 -2 -2 -2 -1 -1 -1 -1 -0 0 1 2 2 3 3 4 4 5 5 5 5 5 5 4 4 5 5 5 5 5 5 5 4 5 5 5 5 5 5 5
-5 -5 -4 -2 -1 -3 -3 -2 -2 -1 -2 -1 -1 -0 0 1 2 2 2 3 4 4 4 5 5 5 5 5 4 5 4 4 4 4 4 4 5 4 5 5 5 5 5 5 5
-4 -4 -4 -3 -3 -1 -2 -1 -2 -2 -1 -1 -1 -0 0 1 1 2 2 3 3 4 4 4 4 4 4 4 4 4 4 4 4 4 3 3 4 4 3 4 4 3 3 3 3
-4 -4 -3 -3 -3 -2 -2 -2 -1 -2 -1 -2 -1 -0 0 1 2 2 2 3 3 4 4 4 4 4 4 3 3 3 3 3 2 1 1 2 3 2 2 2 2 2 2 2 3
-3 -3 -3 -2 -3 -2 -1 -1 -2 -2 -2 -1 -1 -0 1 1 1 2 2 3 3 3 3 3 3 3 3 2 2 1 1 1 1 0 -0 0 1 2 2 1 1 1 1 1 -1
-4 -3 -3 -2 -3 -2 -2 -2 -2 -2 -1 -2 -0 0 1 1 1 2 2 2 3 3 3 2 2 2 2 2 -0 1 1 0 -1 -1 -1 -1 1 3 2 0 -1 -2 -1 -2 -0
-4 -4 -4 -4 -3 -4 -3 -3 -2 -1 -2 -0 1 1 1 1 1 1 1 2 2 2 2 2 2 1 1 0 0 0 -0 -0 -1 -1 -1 1 1 3 1 -1 -2 -3 -2 -0 -1
-4 -4 -3 -3 -3 -2 -1 0 -0 -0 -0 -1 -0 -0 0 1 1 1 1 2 2 1 1 1 1 0 0 0 0 -0 -1 -1 -1 -2 -1 0 2 1 0 -0 -2 -1 -1 -0 0
-3 -4 -3 -4 -3 -3 -1 -1 -1 0 -1 -2 -1 -0 0 1 1 1 1 1 1 1 1 1 0 -0 -0 -0 -2 -2 -1 -1 -2 -2 -1 -2 1 0 -0 -1 -2 0 -1 -1 -0
-3 -3 -3 -3 -3 -2 -2 -1 -0 -0 -1 -1 -1 0 0 1 1 1 1 1 1 1 1 0 0 -0 -0 -1 -2 -2 -1 -2 -3 -4 -3 -1 -3 1 -1 -1 -0 -1 -1 -1 -1
-3 -2 -2 -2 -2 -2 -1 -1 -0 -0 -2 -1 -1 -0 0 1 0 0 1 1 1 1 1 0 0 0 0 -0 -1 -1 -1 -3 -4 -4 -5 -2 -2 -0 0 0 -0 -1 -1 -2 -2
-1 -1 -1 -1 -1 -1 -0 -0 1 1 -3 -1 -0 0 1 0 -0 0 1 0 0 1 1 1 1 1 0 -0 -1 -1 -1 -2 -3 -4 -4 -1 -1 1 1 0 0 -1 -2 -3 -3
-0 -0 -0 -0 -0 0 1 1 1 -2 -1 -1 -0 -0 -1 -1 -1 -0 -0 -1 -0 1 1 0 1 0 0 -1 -2 -3 -2 -1 -3 -3 -3 -1 -2 4 1 0 0 -1 -2 -2 -2
-0 1 1 1 1 1 1 1 1 -2 -1 -0 -0 -0 -1 -0 -0 0 -0 -1 0 0 -1 -1 -0 0 -0 -0 -1 -3 -2 -3 -3 -3 -3 -0 -2 3 2 1 1 -0 -1 -2 -2
0 1 1 1 2 2 2 2 -1 -0 0 -0 -0 -1 -1 0 0 0 -0 -0 -0 -0 -1 -2 -1 0 -0 -0 -1 -2 -2 -3 -3 -1 -2 0 1 2 2 2 1 0 -0 -1 -1
1 1 1 2 2 2 3 2 2 2 2 1 -0 0 -0 -0 0 -1 -1 -0 0 -0 -0 -2 -1 -1 -1 -0 -0 -1 -1 -2 -2 -1 -2 1 3 3 3 2 1 0 -0 -1 -1
2 2 2 2 2 3 3 3 3 2 2 2 2 1 1 1 1 -0 -0 -0 -0 0 -0 -1 -1 -0 -0 0 -1 -1 -1 -1 -2 -2 -2 -2 1 4 3 2 1 1 -0 -0 -0
3 3 2 3 3 3 3 3 3 2 2 2 2 2 2 1 1 -0 -0 -1 1 0 -0 -1 -1 -1 0 -1 -0 -0 -0 -1 -1 -0 -1 -0 0 3 2 2 2 1 1 0 -0
3 3 3 3 3 3 3 3 3 2 2 2 1 1 1 0 0 0 0 1 0 0 -0 -1 -1 -1 -0 -0 0 0 0 -0 -2 -2 -2 -2 2 3 3 2 2 2 1 1 -0
2 3 3 3 3 3 3 3 3 2 2 2 2 1 1 1 1 0 0 0 1 0 -0 -1 -1 -1 0 2 0 -1 -1 -2 -2 -3 -2 -0 3 4 1 1 0 2 2 1 1
3 2 2 3 2 3 2 3 2 2 2 2 2 1 1 0 -1 -1 -1 -1 -1 -0 -1 -2 -1 -0 -0 0 0 -0 -0 -1 -2 -2 -2 3 2 4 3 2 2 2 2 2 2
2 2 2 2 2 1 2 2 2 2 2 2 1 1 1 1 -0 1 -1 -1 -1 -2 -2 -2 -1 -1 -0 1 0 0 2 2 2 0 -2 1 4 3 3 2 2 2 2 2 2
2 2 2 2 2 2 1 2 2 1 2 2 2 1 1 2 1 1 0 0 -1 -2 -3 -3 -4 -4 -2 0 0 2 6 5 4 4 3 1 6 2 3 2 3 2 2 2 2
Height
3005 3011 3017 3020 3026 3031 3038 3049 3057 3066 3073 3080 3084 3088 3092 3096 3100 3104 3108 3111 3113 3116 3119 3121 3123 3125 3127 3129 3131 3133 3135 3136 3138 3136 3134 3134 3136 3133 3136 3136 3135 3137 3136 3136 3134
3009 3014 3019 3023 3025 3032 3039 3047 3053 3062 3072 3078 3082 3088 3092 3096 3098 3103 3107 3109 3113 3115 3118 3119 3122 3123 3125 3127 3130 3131 3132 3132 3133 3132 3132 3131 3132 3132 3130 3129 3134 3131 3131 3130 3128
3013 3017 3022 3029 3028 3035 3038 3042 3053 3062 3071 3078 3084 3089 3092 3095 3100 3102 3105 3109 3112 3114 3117 3119 3120 3122 3124 3125 3127 3128 3129 3129 3129 3129 3129 3128 3128 3126 3125 3126 3128 3124 3123 3123 3121
3019 3021 3023 3025 3030 3037 3040 3044 3053 3061 3072 3079 3085 3088 3092 3096 3101 3103 3106 3108 3111 3113 3116 3117 3119 3121 3122 3123 3125 3126 3126 3126 3126 3126 3126 3124 3123 3122 3120 3126 3120 3119 3117 3116 3117
3024 3025 3027 3029 3028 3035 3041 3052 3056 3064 3073 3081 3087 3090 3094 3097 3100 3102 3105 3108 3111 3113 3115 3116 3117 3119 3120 3121 3122 3122 3123 3124 3123 3123 3122 3119 3120 3117 3117 3119 3116 3114 3112 3111 3110
3027 3028 3033 3034 3036 3038 3046 3058 3061 3068 3076 3083 3088 3091 3094 3099 3101 3103 3106 3108 3110 3112 3114 3115 3116 3117 3119 3120 3121 3121 3121 3121 3120 3119 3117 3115 3116 3111 3115 3112 3109 3108 3107 3106 3104
3031 3035 3037 3039 3038 3045 3052 3062 3067 3072 3079 3086 3090 3093 3096 3100 3102 3104 3106 3108 3110 3112 3113 3114 3116 3117 3117 3118 3118 3119 3119 3119 3116 3115 3112 3111 3111 3110 3105 3107 3103 3103 3101 3099 3098
3037 3040 3043 3045 3046 3053 3057 3066 3074 3080 3086 3089 3092 3096 3098 3101 3103 3105 3107 3109 3110 3111 3113 3114 3114 3115 3116 3116 3116 3117 3116 3116 3113 3112 3109 3109 3103 3107 3102 3101 3097 3096 3095 3093 3092
3041 3044 3048 3052 3051 3056 3065 3072 3081 3084 3089 3093 3096 3098 3100 3102 3104 3106 3108 3109 3110 3111 3111 3112 3113 3113 3114 3114 3115 3115 3116 3115 3113 3110 3107 3104 3098 3101 3100 3095 3092 3091 3089 3087 3084
3045 3046 3051 3058 3060 3066 3074 3080 3085 3088 3093 3095 3099 3103 3102 3104 3104 3106 3108 3108 3109 3109 3111 3111 3111 3112 3112 3113 3115 3115 3114 3113 3112 3110 3103 3101 3094 3094 3093 3089 3087 3085 3084 3079 3075
3051 3053 3057 3062 3068 3074 3080 3085 3091 3096 3097 3098 3100 3101 3102 3105 3105 3107 3107 3108 3108 3110 3110 3110 3111 3112 3113 3113 3114 3113 3112 3110 3109 3106 3099 3096 3091 3089 3086 3084 3083 3079 3073 3073 3072
3060 3063 3065 3071 3074 3080 3084 3086 3090 3095 3099 3100 3101 3103 3104 3106 3107 3108 3110 3111 3109 3110 3110 3112 3112 3114 3114 3113 3112 3111 3109 3108 3104 3101 3098 3092 3086 3084 3082 3081 3076 3074 3073 3069 3065
3069 3072 3076 3078 3082 3085 3090 3096 3096 3100 3101 3105 3106 3107 3108 3110 3109 3111 3112 3112 3112 3112 3113 3113 3115 3114 3113 3112 3111 3110 3109 3106 3103 3096 3095 3089 3084 3082 3080 3079 3073 3073 3068 3063 3055
3083 3085 3086 3089 3095 3095 3099 3102 3103 3103 3105 3111 3110 3111 3112 3112 3113 3114 3114 3115 3114 3114 3113 3114 3114 3114 3112 3111 3110 3109 3107 3104 3100 3097 3096 3091 3088 3081 3080 3076 3073 3070 3062 3055 3050
3093 3094 3097 3100 3100 3102 3105 3104 3105 3104 3107 3115 3113 3114 3114 3116 3118 3116 3116 3115 3114 3114 3116 3116 3113 3113 3112 3111 3109 3109 3105 3101 3098 3098 3094 3092 3091 3078 3077 3075 3073 3064 3057 3050 3045
3103 3103 3103 3104 3105 3106 3106 3106 3107 3108 3114 3116 3117 3117 3117 3118 3118 3117 3117 3116 3115 3114 3114 3114 3114 3114 3112 3111 3109 3107 3102 3099 3098 3096 3095 3091 3091 3076 3075 3072 3068 3061 3054 3050 3044
3108 3108 3108 3108 3109 3108 3108 3109 3110 3111 3119 3120 3119 3119 3118 3119 3118 3117 3117 3117 3117 3116 3115 3114 3113 3112 3112 3110 3107 3105 3101 3099 3100 3097 3095 3090 3089 3076 3073 3070 3066 3062 3055 3049 3044
3110 3112 3113 3112 3112 3112 3112 3112 3111 3117 3117 3119 3120 3119 3121 3120 3120 3120 3119 3120 3118 3116 3114 3115 3113 3112 3111 3110 3109 3107 3106 3106 3107 3103 3094 3090 3083 3075 3073 3069 3065 3061 3056 3051 3045
3113 3113 3114 3114 3114 3114 3116 3114 3116 3118 3119 3120 3120 3122 3122 3121 3122 3121 3120 3119 3118 3117 3117 3115 3113 3110 3110 3109 3111 3108 3108 3108 3106 3102 3099 3085 3078 3073 3070 3068 3064 3058 3055 3050 3045
3118 3116 3116 3115 3116 3116 3117 3116 3118 3120 3121 3122 3122 3122 3122 3121 3122 3121 3120 3119 3118 3117 3116 3116 3112 3110 3108 3108 3107 3108 3108 3108 3107 3104 3100 3082 3075 3071 3068 3066 3062 3057 3055 3050 3047
3121 3120 3120 3118 3118 3118 3118 3119 3121 3122 3123 3124 3122 3122 3122 3121 3121 3120 3121 3119 3117 3116 3114 3113 3113 3111 3108 3106 3106 3106 3106 3106 3107 3105 3101 3093 3074 3069 3067 3064 3061 3058 3054 3051 3047
3123 3122 3122 3122 3124 3121 3120 3120 3121 3122 3122 3123 3123 3122 3121 3121 3120 3119 3119 3118 3117 3115 3114 3113 3111 3106 3105 3104 3103 3103 3102 3103 3104 3101 3098 3095 3074 3066 3065 3063 3060 3058 3054 3051 3047
3125 3124 3123 3123 3123 3122 3121 3122 3122 3123 3122 3122 3121 3121 3121 3121 3121 3118 3117 3116 3115 3114 3113 3112 3110 3106 3103 3103 3099 3097 3097 3098 3099 3096 3090 3092 3071 3065 3063 3060 3057 3056 3055 3051 3048
3125 3125 3124 3124 3123 3123 3122 3122 3122 3122 3121 3121 3120 3119 3119 3119 3118 3117 3116 3114 3114 3113 3112 3111 3106 3106 3102 3099 3099 3096 3096 3094 3094 3090 3083 3073 3065 3066 3066 3061 3057 3053 3052 3051 3048
3124 3124 3123 3122 3123 3122 3123 3122 3122 3122 3120 3120 3119 3118 3118 3118 3116 3114 3113 3113 3110 3110 3109 3108 3102 3101 3096 3092 3090 3085 3083 3085 3084 3080 3078 3064 3064 3062 3062 3059 3056 3053 3050 3048 3047
3123 3122 3122 3122 3121 3120 3120 3120 3120 3120 3120 3119 3118 3116 3115 3114 3115 3112 3112 3112 3109 3105 3106 3103 3098 3094 3085 3084 3080 3074 3072 3072 3070 3070 3065 3062 3057 3061 3057 3055 3053 3050 3047 3045 3044
3122 3120 3119 3119 3119 3119 3118 3116 3116 3116 3115 3115 3115 3114 3112 3112 3110 3109 3108 3107 3106 3104 3102 3100 3097 3094 3081 3080 3076 3067 3062 3061 3061 3060 3061 3058 3055 3055 3053 3051 3049 3047 3045 3042 3040
Wind_Speed
14 18 27 20 42 29 28 37 35 29 25 21 20 19 18 16 14 12 12 11 11 11 10 9 9 7 6 6 5 6 5 4 6 10 12 20 16 19 16 16 20 21 21 22 26
12 12 19 14 33 28 20 33 39 34 27 22 21 17 15 15 14 11 10 11 11 10 10 9 8 6 6 6 7 8 7 8 15 19 16 21 21 20 23 24 19 24 24 25 28
15 10 11 8 24 29 28 32 32 35 29 24 19 16 15 15 13 12 11 11 12 10 9 8 7 7 6 8 9 10 10 15 18 20 22 23 24 26 27 26 23 26 28 29 32
16 10 5 3 6 32 35 27 16 37 30 24 21 19 17 16 13 12 12 11 11 10 9 9 9 9 8 10 10 12 15 18 21 23 22 26 26 27 30 21 26 27 29 30 30
15 13 11 8 3 34 34 17 24 31 28 23 18 17 15 14 9 12 12 11 10 9 9 9 9 9 11 10 11 13 19 17 20 21 23 26 24 27 27 23 26 30 32 33 34
11 9 14 12 10 10 28 19 23 33 28 22 19 17 15 10 8 10 9 9 9 10 10 10 9 10 12 12 13 14 15 18 20 21 24 28 25 30 25 26 29 31 31 31 34
8 11 11 12 15 14 19 20 29 34 30 24 17 14 13 13 10 9 7 6 6 6 7 7 8 9 9 9 10 12 15 17 21 22 24 25 27 25 23 20 27 29 30 28 29
14 14 16 20 29 32 20 21 15 32 27 20 14 12 11 14 10 8 7 6 5 5 5 5 6 7 7 9 11 12 14 9 12 17 27 26 32 17 26 23 28 24 25 27 27
15 15 18 29 33 34 28 25 25 19 17 17 12 12 13 12 10 8 6 4 3 3 4 4 5 6 7 9 9 9 5 9 17 21 23 26 30 22 22 26 27 26 27 27 25
19 16 25 37 38 43 37 25 26 25 23 15 11 11 13 11 10 8 6 5 4 4 4 4 5 6 6 6 3 5 12 15 14 16 26 30 35 29 26 26 25 27 25 27 31
26 23 34 34 29 27 21 22 25 21 13 11 9 13 13 10 8 5 3 2 2 2 2 1 2 4 5 4 5 9 12 16 15 18 27 25 32 25 23 22 25 17 26 26 26
28 28 38 31 25 21 16 14 19 18 15 16 15 11 10 7 8 7 7 6 9 8 7 6 8 6 6 7 8 10 13 15 19 12 28 25 27 17 15 11 13 21 25 28 35
36 32 37 33 27 20 15 17 17 15 19 18 14 11 10 7 11 10 8 8 7 7 6 6 5 6 7 9 9 8 10 14 22 27 11 14 14 8 16 12 17 21 30 40 41
37 34 27 28 23 23 22 23 17 13 9 10 9 10 10 10 12 10 8 7 6 6 4 4 5 5 9 10 10 5 11 19 21 19 7 12 7 15 9 18 23 31 35 29 27
33 32 28 23 22 23 17 13 8 5 4 6 11 9 7 9 6 8 9 5 8 6 5 4 6 6 8 9 11 4 16 18 13 10 13 2 7 7 18 22 29 30 27 22 21
28 24 23 18 15 12 10 6 7 4 5 4 5 6 9 9 9 6 7 9 8 5 5 3 3 4 6 10 9 12 16 4 5 5 3 1 2 14 14 25 25 26 19 21 22
20 18 15 11 9 7 5 5 4 8 6 4 5 5 8 7 9 9 10 11 10 5 3 6 5 5 5 9 11 16 15 3 3 1 4 5 9 11 20 20 17 21 20 17 20
17 17 15 11 6 3 1 2 7 5 5 7 4 9 5 7 5 6 7 6 7 9 6 8 5 6 5 9 7 9 11 4 3 4 6 18 8 10 17 17 18 20 23 21 24
14 15 17 14 9 5 2 4 5 9 10 9 7 5 8 8 5 5 6 4 6 10 6 5 4 9 8 9 7 6 5 7 4 7 7 7 13 23 11 19 21 21 21 23 24
16 16 15 15 14 10 6 9 9 10 7 4 1 1 2 5 3 6 5 5 8 7 8 4 9 6 10 11 8 5 8 3 3 4 5 9 15 14 18 19 19 20 21 21 21
13 13 12 12 12 12 9 11 8 4 1 1 2 1 3 4 5 4 3 9 4 10 10 8 5 4 12 4 4 6 4 3 4 7 2 4 12 14 17 20 17 17 18 17 17
6 6 8 8 5 8 7 7 4 3 2 1 1 2 3 4 5 4 5 7 10 12 11 8 7 11 14 9 14 15 14 10 5 2 8 11 15 13 18 25 20 17 16 17 16
1 3 3 3 2 3 3 3 3 4 4 4 3 4 5 6 5 5 7 8 13 11 7 13 5 9 1 8 10 11 12 14 14 18 19 4 10 13 26 31 26 20 16 16 15
4 3 3 3 3 3 4 6 6 6 7 7 6 7 8 6 7 7 10 11 11 15 14 16 15 16 14 11 11 22 18 17 17 12 13 28 35 23 20 19 26 28 19 14 14
6 7 7 5 6 7 7 7 8 8 9 9 8 7 9 6 9 11 10 11 18 14 15 14 22 21 28 30 31 35 35 32 34 37 23 29 22 25 25 26 22 23 22 17 13
6 7 11 12 11 11 12 11 11 13 14 13 12 13 13 15 12 18 16 16 16 19 15 17 17 22 37 20 12 26 28 28 30 36 45 41 34 14 14 15 18 17 21 18 15
9 9 10 12 13 14 16 16 16 15 16 17 17 18 18 17 19 20 22 22 23 24 23 19 15 18 12 13 27 24 7 12 19 24 24 33 18 19 17 20 20 21 21 19 17
Wind_Direction
142 176 198 205 213 188 157 163 173 185 177 177 178 180 182 184 189 191 190 192 185 186 186 191 192 196 204 208 220 231 229 222 234 248 240 264 270 278 270 264 264 279 272 270 273
141 141 184 207 185 173 144 156 163 176 174 173 180 181 184 187 175 184 184 191 198 192 198 201 208 214 232 249 251 248 245 227 237 252 257 277 283 281 284 279 286 279 277 274 271
102 115 144 129 216 184 120 115 154 169 167 171 172 172 180 179 177 172 174 186 195 199 205 212 217 235 249 259 260 263 240 254 263 263 276 278 280 281 284 284 292 282 279 275 277
91 92 104 81 123 189 114 102 123 156 163 166 166 168 175 179 171 180 181 184 195 202 208 216 229 238 252 259 267 270 263 267 272 276 277 279 281 281 278 296 284 283 283 281 280
107 125 115 92 120 203 187 151 139 148 148 148 155 160 164 172 168 177 186 195 205 215 225 233 239 245 250 261 269 263 271 281 277 282 281 279 282 285 285 288 280 278 278 282 283
111 106 99 92 118 180 210 156 116 143 140 145 151 157 162 164 150 162 173 186 205 216 227 237 244 252 262 266 269 283 280 285 287 287 284 283 284 285 298 286 284 283 282 279 278
108 93 74 68 104 112 117 168 125 129 149 140 141 143 152 153 140 141 153 175 196 211 221 233 245 251 262 273 277 285 288 296 293 291 292 292 291 294 292 285 283 284 283 285 290
100 95 84 91 105 116 132 153 153 129 133 134 127 139 144 150 151 151 157 167 183 201 218 231 241 254 265 275 281 294 306 331 312 300 298 303 296 285 287 298 291 290 291 291 287
99 107 103 118 109 133 128 119 152 123 141 128 130 120 128 141 145 157 166 174 185 206 223 238 245 258 272 286 311 332 321 280 299 304 308 306 298 306 300 292 293 293 287 288 289
99 106 119 136 111 111 113 118 117 115 129 129 129 125 122 126 132 141 154 166 188 223 238 259 279 287 296 315 1 261 284 293 294 309 301 292 297 310 306 296 292 287 288 273 272
98 108 124 137 142 130 115 110 128 119 120 113 120 124 122 124 127 128 134 161 193 233 243 310 5 10 14 0 322 303 298 300 319 289 292 303 303 314 309 294 282 268 261 284 292
109 121 110 120 127 129 120 114 127 125 116 101 104 104 107 112 103 93 92 89 83 75 77 74 53 25 359 339 327 324 329 328 308 289 302 309 308 309 311 300 279 285 294 297 291
107 110 107 108 113 121 127 138 126 136 97 84 82 91 94 100 93 84 74 58 57 55 51 46 21 20 7 360 351 343 293 295 310 312 343 314 325 344 315 307 276 310 307 303 296
92 115 112 115 108 118 123 120 117 109 89 59 62 64 87 90 70 56 42 47 55 45 43 45 34 20 10 18 341 335 303 304 317 330 312 314 290 290 272 282 299 305 309 306 311
106 101 102 100 103 117 114 101 70 60 68 48 63 78 66 67 50 38 38 36 45 50 36 21 13 2 2 350 343 282 317 316 310 310 318 3 275 294 300 305 316 323 326 333 345
78 80 83 85 105 110 104 57 30 58 54 70 76 70 70 53 48 54 52 44 38 27 3 348 8 350 329 337 336 336 341 330 354 343 280 180 295 285 320 330 346 346 343 352 347
64 70 68 69 92 103 82 35 29 61 111 102 90 68 59 24 22 32 38 25 15 355 359 337 290 296 319 342 347 353 2 339 344 296 242 264 284 300 342 343 353 12 19 7 4
70 69 79 87 93 111 142 50 67 113 123 120 84 50 35 20 15 26 48 17 9 2 9 348 311 306 322 345 341 346 24 42 314 338 297 292 247 305 324 346 343 340 341 342 350
78 79 78 77 87 103 117 56 108 129 130 111 58 60 3 3 4 13 355 350 1 8 19 341 287 305 295 307 333 331 8 336 279 303 278 245 279 300 325 335 339 334 343 347 353
74 72 74 72 69 76 94 107 116 119 111 93 78 18 53 335 30 358 340 325 334 356 358 302 302 307 294 304 297 256 311 326 310 308 299 286 274 272 320 334 340 342 346 345 351
82 78 72 76 79 85 94 106 109 117 99 316 330 325 327 340 329 337 257 311 308 336 338 329 310 294 308 311 290 287 307 302 274 236 265 305 287 297 321 340 341 344 340 343 345
69 81 91 90 92 102 136 148 167 178 187 232 292 309 294 305 301 274 241 281 315 323 326 306 292 274 297 265 270 261 248 230 227 219 268 282 273 304 331 337 336 339 340 334 335
91 81 99 116 119 125 163 188 218 217 221 237 253 259 274 295 308 290 290 305 304 311 310 307 299 308 283 253 265 255 259 245 234 259 259 249 260 305 326 327 329 331 332 329 329
262 240 200 214 229 228 239 249 250 262 277 271 272 276 280 292 282 277 291 301 306 305 302 297 272 246 252 267 275 278 264 265 247 244 252 245 278 286 300 308 313 319 326 326 324
305 276 262 249 241 255 258 273 274 275 267 273 282 280 276 286 301 302 298 295 300 295 288 278 274 283 281 284 286 281 271 259 243 250 250 271 274 288 299 293 298 294 310 318 317
310 300 288 277 272 266 262 269 272 269 272 278 274 278 275 272 268 268 280 289 291 287 293 288 281 296 294 306 288 289 281 267 257 250 256 271 283 314 286 297 306 302 300 307 308
314 293 289 293 287 279 273 273 275 269 276 270 281 278 277 284 286 287 288 287 278 272 278 283 289 311 290 299 304 294 328 272 262 263 266 257 304 294 293 300 299 294 294 298 300